TimeEDT,TemperatureF,Dew PointF,Humidity,Sea Level PressureIn,VisibilityMPH,Wind Direction,Wind SpeedMPH,Gust SpeedMPH,PrecipitationIn,Events,Conditions,WindDirDegrees,DateUTC
12:15 AM,59.0,55.4,88,30.04,9.0,Calm,Calm,-,N/A,,Clear,0,2012-11-02 04:15:00
12:35 AM,57.2,55.4,94,30.04,9.0,Calm,Calm,-,N/A,,Clear,0,2012-11-02 04:35:00
12:55 AM,57.2,53.6,88,30.04,10.0,Calm,Calm,-,N/A,,Clear,0,2012-11-02 04:55:00
1:15 AM,57.2,53.6,88,30.03,9.0,Calm,Calm,-,N/A,,Clear,0,2012-11-02 05:15:00
1:35 AM,57.2,53.6,88,30.03,9.0,Calm,Calm,-,N/A,,Clear,0,2012-11-02 05:35:00
1:55 AM,55.4,51.8,88,30.03,9.0,Calm,Calm,-,N/A,,Clear,0,2012-11-02 05:55:00
2:15 AM,55.4,51.8,88,30.04,9.0,Calm,Calm,-,N/A,,Clear,0,2012-11-02 06:15:00
2:35 AM,55.4,51.8,88,30.04,9.0,Calm,Calm,-,N/A,,Clear,0,2012-11-02 06:35:00
2:55 AM,53.6,51.8,94,30.03,10.0,Calm,Calm,-,N/A,,Clear,0,2012-11-02 06:55:00
3:15 AM,53.6,50.0,88,30.04,10.0,Calm,Calm,-,N/A,,Clear,0,2012-11-02 07:15:00
3:35 AM,53.6,50.0,88,30.04,9.0,Calm,Calm,-,N/A,,Clear,0,2012-11-02 07:35:00
3:55 AM,53.6,51.8,94,30.04,10.0,Calm,Calm,-,N/A,,Clear,0,2012-11-02 07:55:00
4:15 AM,53.6,50.0,88,30.04,10.0,Calm,Calm,-,N/A,,Clear,0,2012-11-02 08:15:00
4:35 AM,53.6,50.0,88,30.05,10.0,Calm,Calm,-,N/A,,Clear,0,2012-11-02 08:35:00
4:55 AM,53.6,50.0,88,30.05,10.0,Calm,Calm,-,N/A,,Clear,0,2012-11-02 08:55:00
5:15 AM,53.6,50.0,88,30.05,10.0,Calm,Calm,-,N/A,,Clear,0,2012-11-02 09:15:00
5:35 AM,53.6,50.0,88,30.05,10.0,Calm,Calm,-,N/A,,Clear,0,2012-11-02 09:35:00
5:55 AM,53.6,50.0,88,30.06,9.0,Calm,Calm,-,N/A,,Clear,0,2012-11-02 09:55:00
6:15 AM,50.0,48.2,94,30.06,9.0,Calm,Calm,-,N/A,,Clear,0,2012-11-02 10:15:00
6:35 AM,51.8,48.2,88,30.07,9.0,Calm,Calm,-,N/A,,Clear,0,2012-11-02 10:35:00
6:55 AM,50.0,48.2,94,30.07,9.0,Calm,Calm,-,N/A,,Clear,0,2012-11-02 10:55:00
7:15 AM,50.0,46.4,87,30.07,8.0,Calm,Calm,-,N/A,,Clear,0,2012-11-02 11:15:00
7:35 AM,51.8,48.2,88,30.07,8.0,Calm,Calm,-,N/A,,Clear,0,2012-11-02 11:35:00
7:55 AM,48.2,46.4,93,30.08,9.0,Calm,Calm,-,N/A,,Clear,0,2012-11-02 11:55:00
8:15 AM,50.0,48.2,94,30.08,8.0,Calm,Calm,-,N/A,,Clear,0,2012-11-02 12:15:00
8:35 AM,53.6,51.8,94,30.08,8.0,Calm,Calm,-,N/A,,Clear,0,2012-11-02 12:35:00
8:55 AM,55.4,51.8,88,30.09,10.0,Calm,Calm,-,N/A,,Clear,0,2012-11-02 12:55:00
9:15 AM,57.2,51.8,82,30.09,10.0,NW,4.6,-,N/A,,Clear,310,2012-11-02 13:15:00
9:55 AM,60.8,48.2,63,30.10,10.0,Calm,Calm,-,N/A,,Clear,0,2012-11-02 13:55:00
10:15 AM,62.6,46.4,55,30.10,10.0,NNW,4.6,-,N/A,,Clear,330,2012-11-02 14:15:00
10:35 AM,64.4,44.6,49,30.11,10.0,Calm,Calm,-,N/A,,Clear,0,2012-11-02 14:35:00
10:55 AM,66.2,39.2,37,30.11,10.0,NNW,4.6,-,N/A,,Clear,340,2012-11-02 14:55:00
11:15 AM,68.0,39.2,35,30.12,10.0,NNW,5.8,-,N/A,,Clear,330,2012-11-02 15:15:00
11:35 AM,69.8,39.2,33,30.11,10.0,Calm,Calm,-,N/A,,Clear,0,2012-11-02 15:35:00
11:55 AM,71.6,37.4,29,30.11,10.0,NW,8.1,-,N/A,,Clear,320,2012-11-02 15:55:00
12:15 PM,71.6,39.2,31,30.10,10.0,North,3.5,-,N/A,,Clear,350,2012-11-02 16:15:00
12:35 PM,71.6,41.0,33,30.10,10.0,NW,6.9,17.3,N/A,,Clear,310,2012-11-02 16:35:00
12:55 PM,71.6,42.8,35,30.09,10.0,WNW,6.9,-,N/A,,Clear,290,2012-11-02 16:55:00
1:15 PM,73.4,42.8,33,30.08,10.0,WNW,5.8,-,N/A,,Clear,300,2012-11-02 17:15:00
1:35 PM,73.4,42.8,33,30.07,10.0,WNW,8.1,-,N/A,,Clear,290,2012-11-02 17:35:00
1:55 PM,73.4,42.8,33,30.06,10.0,NW,11.5,-,N/A,,Clear,310,2012-11-02 17:55:00
2:15 PM,73.4,39.2,29,30.05,10.0,WNW,5.8,-,N/A,,Clear,300,2012-11-02 18:15:00
2:35 PM,75.2,42.8,31,30.04,10.0,WNW,5.8,-,N/A,,Clear,290,2012-11-02 18:35:00
2:55 PM,75.2,42.8,31,30.03,10.0,West,4.6,-,N/A,,Clear,270,2012-11-02 18:55:00
3:15 PM,75.2,42.8,31,30.03,10.0,West,5.8,-,N/A,,Clear,270,2012-11-02 19:15:00
3:35 PM,75.2,42.8,31,30.03,10.0,SW,4.6,-,N/A,,Clear,230,2012-11-02 19:35:00
3:55 PM,75.2,42.8,31,30.02,10.0,Calm,Calm,-,N/A,,Clear,0,2012-11-02 19:55:00
4:15 PM,77.0,44.6,32,30.02,9.0,Calm,Calm,-,N/A,,Clear,0,2012-11-02 20:15:00
4:55 PM,77.0,44.6,32,30.02,10.0,Calm,Calm,-,N/A,,Clear,0,2012-11-02 20:55:00
5:15 PM,77.0,44.6,32,30.02,9.0,WSW,3.5,-,N/A,,Clear,240,2012-11-02 21:15:00
5:35 PM,75.2,44.6,34,30.02,10.0,SW,8.1,-,N/A,,Clear,220,2012-11-02 21:35:00
5:55 PM,75.2,44.6,34,30.02,10.0,SW,8.1,-,N/A,,Clear,220,2012-11-02 21:55:00
6:15 PM,73.4,46.4,38,30.02,10.0,SW,6.9,-,N/A,,Clear,220,2012-11-02 22:15:00
6:55 PM,68.0,48.2,49,30.03,10.0,Calm,Calm,-,N/A,,Clear,0,2012-11-02 22:55:00
7:15 PM,66.2,48.2,52,30.03,10.0,Calm,Calm,-,N/A,,Clear,0,2012-11-02 23:15:00
7:35 PM,66.2,48.2,52,30.03,10.0,Calm,Calm,-,N/A,,Clear,0,2012-11-02 23:35:00
7:55 PM,64.4,48.2,56,30.04,10.0,Calm,Calm,-,N/A,,Clear,0,2012-11-02 23:55:00
8:15 PM,64.4,48.2,56,30.05,10.0,SW,5.8,-,N/A,,Clear,230,2012-11-03 00:15:00
8:35 PM,66.2,48.2,52,30.05,10.0,SW,6.9,-,N/A,,Clear,230,2012-11-03 00:35:00
8:55 PM,64.4,48.2,56,30.05,10.0,WSW,5.8,-,N/A,,Clear,240,2012-11-03 00:55:00
9:15 PM,64.4,48.2,56,30.06,10.0,WSW,6.9,-,N/A,,Clear,240,2012-11-03 01:15:00
9:35 PM,62.6,46.4,55,30.07,9.0,WSW,5.8,-,N/A,,Clear,240,2012-11-03 01:35:00
9:55 PM,62.6,48.2,59,30.07,10.0,WSW,4.6,-,N/A,,Clear,250,2012-11-03 01:55:00
10:15 PM,62.6,46.4,55,30.08,10.0,WSW,3.5,-,N/A,,Clear,240,2012-11-03 02:15:00
10:35 PM,60.8,48.2,63,30.08,10.0,WSW,3.5,-,N/A,,Clear,240,2012-11-03 02:35:00
10:55 PM,60.8,48.2,63,30.08,10.0,West,4.6,-,N/A,,Clear,260,2012-11-03 02:55:00
11:15 PM,60.8,48.2,63,30.08,10.0,Calm,Calm,-,N/A,,Clear,0,2012-11-03 03:15:00
11:55 PM,59.0,48.2,67,30.08,10.0,Calm,Calm,-,N/A,,Clear,0,2012-11-03 03:55:00